Home   Weather   Wiener Neustadt   Past weeks

Flag for Austria Past Weather in Wiener Neustadt, Lower Austria, Austria — Yesterday and Last 2 Weeks

Now
49 °F

Overcast.


Feels Like: 47 °F
Forecast: 43 / 58 °F
Wind: 6 mph from Southeast

Location: Eisenstadt

Current Time: May 1, 2017 at 6:51:41 am

Latest Report: May 1, 2017 at 6:00 am


Visibility: 9 mi

Pressure: 29.97 "Hg

Humidity: 71%

Dew Point: 40 °F

Location of Wiener NeustadtLocation

Past Weather in Wiener Neustadt — Graph

°F

Wiener Neustadt Temperature Yesterday

Maximum temperature yesterday: 60 °F (at 4:00 pm)
Minimum temperature yesterday: 38 °F (at 6:00 am)
Average temperature yesterday: 51 °F

High & Low Weather Summary for the Past Weeks

 TemperatureHumidityPressure
High75 °F (Apr 25, 3:00 pm)95% (Apr 19, 9:00 pm)30.48 "Hg (Apr 19, 9:00 pm)
Low31 °F (Apr 21, 6:00 am)30% (Apr 25, 2:00 pm)29.65 "Hg (Apr 25, 7:00 pm)
Average47 °F67%30.02 "Hg
* Reported Apr 16 5:00 am — May 1 5:00 am, Wiener Neustadt, Weather by CustomWeather, © 2017

Note: Actual official high and low records may vary slightly from our data, if they occured in-between our weather recording intervals... More about our weather records

Advertising

Wiener Neustadt Weather History for the Previous 24 Hours

Scroll right to see more
 ConditionsComfort  
Time TempWeatherWind HumidityBarometerVisibility
5:00 am
Mon, May 1
49 °FCool.5 mph71%29.97 "HgN/A
4:00 am50 °FOvercast.6 mph70%29.97 "Hg9 mi
3:00 am50 °FCool.6 mph68%29.98 "HgN/A
2:00 am50 °FOvercast.3 mph67%29.98 "Hg9 mi
1:00 am51 °FCool.5 mph65%29.99 "HgN/A
12:00 am51 °FCool.5 mph63%29.99 "HgN/A
11:00 pm
Sun, Apr 30
52 °FPassing clouds.5 mph64%30.00 "Hg9 mi
10:00 pm51 °FCool.2 mph67%30.01 "HgN/A
9:00 pm51 °FCool.1 mph69%30.01 "HgN/A
8:00 pm54 °FPartly sunny.2 mph58%30.01 "Hg9 mi
7:00 pm58 °FPartly sunny.5 mph47%30.00 "Hg12 mi
6:00 pm58 °FRefreshingly cool.6 mph44%30.01 "HgN/A
5:00 pm59 °FScattered clouds.6 mph39%30.01 "Hg12 mi
4:00 pm60 °FRefreshingly cool.5 mph36%30.03 "HgN/A
3:00 pm59 °FRefreshingly cool.6 mph40%30.04 "HgN/A
2:00 pm59 °FScattered clouds.6 mph37%30.06 "Hg12 mi
1:00 pm58 °FRefreshingly cool.6 mph41%30.07 "HgN/A
12:00 pm57 °FRefreshingly cool.5 mph47%30.08 "HgN/A
11:00 am56 °FRefreshingly cool.2 mph55%30.10 "HgN/A
10:00 am54 °FCool.2 mph57%30.11 "HgN/A
9:00 am51 °FCool.1 mph54%30.11 "HgN/A
8:00 am46 °FCool.No wind66%30.11 "HgN/A
7:00 am40 °FChilly.2 mph83%30.12 "HgN/A
6:00 am38 °FSunny.1 mph86%30.11 "Hg12 mi
Weather by CustomWeather, © 2017

See weather overviewHow to use our weather pages